Vertical_Velocity
6 7 8 8 8 7 5 3 1 0 0 1 1 1 0 0 1 1 2 1 1 1 1 1 1 1 2 2 2 2 1 0 -0 -1 -1 -1 -1 -1 -2 -3 -4 -6 -7 -8 -8 -8 -7 -6 -4 -3 -1 -1 -1 -1 -1 -1 -1 -1 -1 -1 -1 -1 -1 -1 -1 -1 -1 -1 -2 -2 -2 -2 -2 -2 -2 -1 -1 -1 -1 -1 -0 -0 0 0 0 -0
3 4 4 6 6 6 5 3 2 2 1 1 1 1 0 0 0 0 -0 -0 -0 -0 -1 -1 -1 -1 -1 -1 -1 -1 -1 -2 -3 -4 -5 -5 -6 -7 -8 -8 -9 -9 -8 -6 -5 -3 -2 -0 1 1 1 1 1 0 -0 -0 -0 -0 -0 -0 -0 -1 -1 -1 -1 -2 -2 -2 -2 -2 -2 -2 -2 -2 -2 -2 -1 -1 -1 -1 -1 -0 -0 -0 -0 -0
1 1 2 3 3 4 3 2 2 2 2 1 0 0 -0 -1 -1 -1 -1 -1 -1 -1 -1 -2 -3 -3 -4 -4 -4 -4 -5 -6 -7 -8 -8 -9 -9 -9 -8 -6 -5 -4 -2 -1 0 1 2 2 2 2 1 1 0 0 0 0 0 0 -0 -0 -1 -1 -1 -2 -2 -2 -2 -2 -2 -2 -2 -2 -2 -2 -1 -1 -1 -1 -1 -1 -0 -0 0 0 -0 -0
-0 0 1 1 2 2 3 2 2 1 1 -0 -1 -2 -2 -2 -2 -2 -2 -1 -2 -2 -2 -3 -4 -4 -5 -5 -6 -6 -6 -7 -7 -7 -7 -6 -5 -4 -2 -1 0 1 2 2 2 2 2 2 1 1 1 0 0 0 0 0 0 0 -0 -0 -1 -1 -1 -1 -2 -2 -2 -2 -2 -2 -1 -1 -1 -1 -1 -1 -0 -0 -0 -0 0 0 0 0 0 -0
-0 0 0 1 1 2 2 2 2 1 -0 -2 -3 -4 -4 -5 -4 -4 -4 -3 -3 -3 -3 -3 -3 -3 -3 -3 -3 -3 -3 -2 -2 -2 -1 -0 0 1 1 1 2 2 2 2 2 2 2 1 1 1 1 1 1 1 1 1 0 0 -0 -0 -1 -1 -1 -1 -1 -1 -1 -1 -1 -1 -1 -1 -1 -0 -0 -0 -0 -0 0 0 0 1 1 1 1 0
-0 -0 -0 -0 0 1 1 1 0 -0 -1 -3 -5 -6 -6 -6 -6 -5 -4 -4 -3 -3 -2 -2 -2 -1 -1 -1 -0 1 1 2 2 2 2 2 2 2 2 1 1 2 2 2 2 2 1 1 1 1 1 1 1 1 1 1 1 0 0 -0 -0 -0 -0 -0 -0 -0 -0 -0 -0 -0 -0 -0 -0 -0 -0 -0 0 0 0 0 1 1 1 1 1 1
-2 -2 -3 -3 -3 -3 -3 -3 -2 -3 -4 -4 -5 -6 -6 -6 -5 -4 -3 -2 -1 -1 -1 -0 -0 0 1 1 2 3 3 4 4 4 4 3 3 2 2 2 2 2 2 2 2 2 1 1 1 1 1 1 1 1 1 1 0 0 0 -0 -0 -0 -0 -0 -0 -0 -0 -0 -0 -0 -0 -0 -0 -0 -0 0 0 1 1 1 1 1 1 1 1 1
-7 -7 -7 -8 -8 -8 -7 -6 -6 -5 -4 -4 -4 -4 -4 -4 -3 -2 -0 0 1 1 1 1 2 2 2 3 3 4 4 4 4 4 4 4 3 3 2 2 2 2 2 2 2 2 1 1 1 1 1 1 1 1 0 -0 -0 -0 -0 -0 -0 -0 -0 -0 -0 -0 -0 -0 -0 -0 -0 -0 -0 -0 0 0 1 1 1 1 1 1 1 1 1 1
-10 -10 -11 -11 -11 -10 -9 -8 -7 -6 -4 -3 -3 -3 -2 -2 -2 -1 -0 0 1 2 2 2 2 3 3 3 4 4 4 4 3 3 3 3 3 2 2 2 2 2 2 2 1 1 1 1 0 0 0 0 -0 -0 -1 -1 -1 -1 -1 -1 -1 -1 -1 -0 -0 -0 -0 -0 -0 -0 -0 -0 -0 0 0 0 0 0 0 0 0 0 1 1 1 1
-7 -8 -8 -9 -9 -9 -8 -7 -6 -5 -4 -3 -2 -2 -3 -3 -2 -2 -1 -0 1 1 1 2 2 2 3 3 3 3 3 3 2 2 2 2 1 1 1 1 1 1 1 1 1 1 0 0 -0 -0 -0 -1 -1 -1 -1 -1 -1 -1 -1 -1 -1 -1 -1 -1 -0 -0 -0 -0 -0 -0 -0 -0 -0 -0 0 -0 -0 -0 -0 -0 -0 0 0 0 0 1
-1 -2 -3 -3 -4 -4 -5 -5 -4 -4 -3 -2 -2 -2 -2 -2 -3 -3 -2 -1 0 0 1 1 1 1 2 2 3 3 2 2 2 2 1 1 1 0 0 0 1 1 1 1 1 1 0 -0 -0 -0 -0 -1 -1 -1 -1 -1 -1 -1 -0 -0 -0 -0 -0 -0 -0 -0 0 0 0 -0 -0 -0 -0 -0 -0 -0 -0 -1 -1 -0 -0 -0 -0 0 0 0
0 0 0 0 -0 -0 -1 -1 -2 -1 -1 -0 -1 -1 -1 -1 -2 -2 -1 -0 0 0 1 1 0 0 0 1 1 1 1 1 1 1 1 1 0 0 -0 0 1 1 1 1 1 1 0 0 0 -0 -0 -0 -0 -0 -0 -0 -0 -0 0 0 0 0 -0 -0 -0 -0 -0 0 0 -0 -0 -0 -0 -0 -1 -1 -1 -1 -1 -1 -1 -0 -0 -0 -0 -0
-1 -1 -0 -0 0 0 1 1 1 1 2 2 1 -0 -1 -0 -0 -0 0 1 1 1 1 0 -0 -0 -0 -0 -0 -0 0 1 1 0 -0 -0 -0 -1 -1 -0 -0 1 1 1 0 0 -0 -0 -0 -0 -1 -1 -1 -1 -1 -1 -1 -1 -1 -1 -1 -1 -1 -0 -0 -0 -0 -0 -0 -0 -0 -0 -0 -0 -1 -1 -1 -1 -1 -1 -1 -1 -1 -0 -0 -0
-1 -1 -1 -1 -1 -1 -1 -0 1 1 2 2 2 1 1 1 1 1 1 1 1 1 1 1 0 0 -0 -0 -0 -0 -0 0 0 0 -0 -0 -1 -1 -2 -1 -1 -1 -1 -1 -1 -2 -2 -2 -2 -2 -2 -3 -3 -3 -3 -3 -3 -3 -2 -2 -2 -2 -1 -1 -1 -1 -1 -0 -0 -0 -0 -0 -0 -0 -1 -1 -1 -1 -1 -1 -1 -1 -1 -1 -1 -1
-1 -1 -1 -1 -2 -2 -2 -1 -0 0 0 0 1 1 2 2 2 2 1 1 0 1 1 2 2 1 -0 0 1 1 1 1 2 2 1 1 0 -1 -1 0 1 1 -0 -0 -0 -1 -2 -3 -2 -1 -2 -3 -3 -3 -3 -4 -3 -3 -3 -3 -2 -2 -2 -2 -1 -1 -1 -1 -1 -1 -1 -1 -1 -1 -1 -1 -1 -1 -1 -1 -1 -1 -1 -1 -1 -1
1 1 1 1 -0 -1 -1 -1 -0 -0 0 -0 -0 0 1 1 1 1 1 1 0 0 1 2 2 -0 -2 -1 0 1 2 2 2 2 3 3 2 0 0 2 3 3 2 1 2 1 -0 -1 -0 1 1 -0 -1 -1 -2 -2 -2 -3 -3 -3 -3 -3 -3 -2 -2 -2 -2 -2 -2 -2 -2 -2 -2 -2 -2 -2 -2 -2 -2 -2 -2 -2 -2 -2 -2 -2
2 2 3 2 2 2 1 1 1 1 1 1 0 0 -0 0 0 0 1 1 0 0 1 2 1 -0 -3 -4 -2 -0 1 1 1 1 2 3 2 0 -1 1 4 4 3 2 2 2 1 -0 0 1 2 2 1 1 0 -0 -1 -2 -3 -4 -4 -4 -4 -4 -4 -4 -4 -4 -4 -3 -3 -3 -3 -3 -3 -3 -3 -3 -3 -2 -2 -2 -2 -3 -3 -3
2 2 2 2 2 3 3 3 3 3 2 2 2 2 1 1 1 1 1 1 1 0 0 0 0 0 -1 -3 -4 -3 -1 -0 0 1 2 3 2 -0 -3 -1 2 4 3 1 0 -0 -0 -0 0 1 2 2 3 3 3 4 4 3 2 0 -1 -2 -4 -4 -5 -5 -5 -5 -5 -4 -4 -4 -4 -4 -4 -4 -3 -3 -3 -3 -3 -3 -3 -3 -3 -3
1 2 2 2 2 3 3 4 4 4 2 2 2 2 2 3 2 2 2 2 1 0 -0 -0 -0 0 1 -0 -2 -4 -5 -1 1 2 2 4 3 -0 -4 -2 0 2 3 1 -1 -2 -2 -1 1 1 2 2 2 3 4 4 6 7 8 8 8 6 3 -0 -2 -4 -4 -4 -4 -4 -4 -4 -4 -4 -4 -4 -4 -4 -4 -4 -4 -3 -3 -3 -3 -3
1 1 1 1 1 2 3 4 4 3 2 2 2 2 3 3 2 1 2 1 1 0 0 -0 0 1 1 1 -1 -4 -6 -2 0 2 3 4 2 -0 -3 -2 -0 2 3 1 -0 -2 -2 -1 1 2 1 1 1 1 1 1 1 2 4 6 8 9 8 5 2 -0 -2 -2 -3 -3 -3 -3 -3 -4 -4 -4 -4 -3 -3 -3 -3 -3 -3 -3 -3 -3
1 2 2 1 1 1 3 3 2 2 2 2 2 2 2 1 0 0 1 1 1 0 0 0 1 1 1 1 0 -1 -4 -3 -1 1 2 3 2 1 -1 -2 -1 1 3 2 0 -2 -2 -1 1 2 1 -0 -0 -0 -0 -0 -0 0 1 2 4 5 5 3 1 -0 -2 -2 -2 -2 -2 -2 -2 -2 -2 -2 -2 -2 -2 -2 -2 -2 -2 -2 -2 -2
1 1 1 1 1 1 2 1 1 1 2 2 2 2 2 0 -0 -0 1 0 -0 -0 -0 0 1 1 0 1 1 -0 -3 -3 -2 1 1 1 3 4 0 -3 -2 -0 4 3 1 -2 -2 -0 1 2 1 -0 -1 -1 -0 -0 0 1 1 2 2 3 2 1 -1 -2 -4 -4 -3 -3 -3 -2 -2 -2 -2 -1 -1 -1 -1 -1 -1 -2 -2 -2 -2 -2
-0 0 0 -0 0 1 0 -1 -1 0 1 1 1 1 0 -1 -1 -0 0 -0 -1 -1 -1 -1 -0 -0 0 1 1 -0 -4 -4 -2 -1 -0 0 3 4 2 -2 -2 0 4 4 1 -2 -2 1 2 3 2 0 -1 -0 0 1 1 2 2 3 3 3 2 2 1 -1 -2 -3 -4 -4 -4 -3 -2 -2 -2 -1 -1 -1 -1 -1 -1 -1 -1 -1 -2 -2
-1 -1 -1 -1 -0 -0 -1 -2 -1 -1 -0 0 0 -0 -1 -1 -0 0 0 -1 -1 -1 -1 -1 -1 -0 1 1 1 -1 -4 -3 -3 -2 -1 0 3 4 2 -1 -1 1 4 4 1 -1 -1 2 4 4 2 0 -0 0 1 2 2 3 3 2 2 2 2 3 3 3 2 -0 -1 -2 -3 -3 -3 -3 -2 -2 -2 -2 -1 -1 -2 -2 -2 -2 -2 -2
-2 -2 -2 -1 -1 -1 -1 -2 -2 -2 -2 -1 -1 -1 -1 -1 -0 0 0 -0 -1 -1 -1 -0 1 2 2 1 0 -0 -0 -0 -1 -2 -1 0 2 3 3 1 -0 0 3 3 1 -0 -0 3 5 5 2 -0 0 1 2 2 2 2 2 1 0 -0 0 2 3 4 4 3 2 1 -0 -1 -2 -2 -2 -2 -2 -2 -2 -2 -3 -3 -4 -4 -4 -4
-2 -2 -2 -2 -1 -1 -1 -2 -2 -2 -2 -2 -1 -1 -1 -1 -1 -0 -0 -1 -1 -1 -1 -0 2 4 3 2 1 2 4 1 -1 -3 -1 -0 0 1 3 1 -1 -2 0 2 2 0 -0 3 5 5 2 -0 0 2 2 2 2 1 0 -1 -1 -1 -1 -0 1 2 3 3 3 3 2 1 -0 -1 -2 -2 -3 -3 -3 -4 -4 -5 -6 -6 -6 -5
-1 -1 -1 -1 -1 -1 -0 -1 -1 -2 -2 -2 -2 -1 -1 -1 -1 -1 -1 -1 -2 -2 -2 0 2 3 2 1 1 3 5 2 -2 -4 -3 -2 -1 -0 2 0 -2 -4 -2 1 2 1 -0 2 4 5 2 0 1 2 3 2 1 -0 -1 -1 -1 -1 -1 -1 -1 -0 -0 1 2 2 2 1 0 -1 -2 -3 -3 -4 -4 -5 -6 -6 -7 -7 -7 -6
-1 -1 -1 -1 -1 -0 -0 -0 -1 -1 -2 -2 -2 -2 -1 -1 -1 -0 -1 -2 -4 -4 -3 0 2 1 -1 -1 1 3 4 1 -3 -5 -4 -4 -4 -1 3 0 -4 -6 -3 1 2 1 -0 1 3 4 2 1 1 2 2 2 0 -1 -2 -2 -1 -1 -1 -1 -2 -2 -2 -2 -1 -1 -1 -1 -2 -2 -3 -4 -5 -5 -5 -6 -6 -7 -8 -8 -8 -7
-1 -1 -1 -1 -1 -1 -1 -1 -1 -1 -2 -2 -2 -2 -2 -2 -1 -0 -1 -3 -4 -4 -2 0 0 -1 -3 -2 -0 2 4 0 -3 -6 -6 -7 -5 -1 5 -0 -5 -7 -3 -0 1 1 1 2 2 2 1 1 1 2 2 0 -1 -3 -3 -2 -2 -1 -2 -3 -4 -4 -4 -4 -4 -4 -3 -3 -3 -4 -4 -5 -5 -5 -5 -6 -7 -8 -9 -8 -7 -7
-2 -2 -2 -2 -2 -2 -2 -2 -2 -2 -2 -2 -2 -3 -3 -3 -2 -1 -2 -4 -5 -4 -1 -0 -1 -3 -4 -2 -0 2 4 0 -4 -7 -8 -8 -4 1 5 -1 -5 -5 -2 -3 -2 -1 3 5 4 1 -1 0 1 2 1 -1 -3 -4 -4 -2 -2 -1 -2 -4 -5 -6 -5 -5 -5 -4 -4 -3 -3 -3 -3 -4 -4 -4 -4 -5 -6 -8 -9 -8 -7 -6
-3 -3 -3 -3 -3 -2 -2 -2 -2 -2 -2 -2 -3 -3 -3 -3 -3 -2 -3 -4 -4 -3 -1 -1 -2 -3 -3 -2 -0 2 6 1 -5 -9 -8 -6 -1 3 3 -3 -5 -4 -2 -4 -6 -6 -2 4 5 3 -1 0 2 3 1 -2 -4 -4 -2 -1 -1 -1 -2 -4 -5 -5 -4 -4 -4 -4 -4 -4 -3 -2 -2 -2 -2 -2 -2 -2 -4 -6 -7 -7 -6 -5
-4 -4 -4 -4 -4 -3 -2 -2 -1 -1 -2 -2 -2 -2 -3 -3 -3 -3 -3 -4 -4 -3 -2 -2 -2 -2 -3 -2 -1 2 5 0 -5 -9 -8 -5 -1 2 1 -4 -5 -3 -2 -5 -7 -9 -8 -3 1 3 1 2 4 5 3 -2 -4 -4 -2 -0 -0 -1 -1 -3 -5 -5 -4 -2 -2 -3 -4 -4 -4 -3 -3 -2 -2 -2 -2 -2 -3 -5 -6 -7 -7 -6
-4 -4 -4 -4 -5 -4 -3 -2 -1 -1 -1 -1 -2 -2 -3 -3 -3 -3 -3 -3 -3 -3 -2 -2 -2 -2 -3 -2 -1 1 3 -1 -5 -8 -8 -5 -2 -0 -1 -4 -5 -4 -2 -4 -7 -8 -8 -6 -3 -0 0 3 5 5 3 -0 -2 -3 -2 -1 -1 -1 -1 -4 -6 -6 -4 -2 -2 -4 -4 -4 -4 -4 -4 -4 -4 -4 -3 -3 -3 -4 -6 -8 -8 -8
-4 -3 -4 -4 -5 -4 -4 -3 -2 -2 -2 -2 -2 -2 -2 -3 -3 -3 -3 -3 -3 -3 -2 -2 -2 -2 -3 -2 -1 1 1 -2 -5 -7 -7 -6 -3 -1 -1 -4 -4 -4 -2 -3 -4 -6 -6 -5 -3 -2 -2 1 4 5 2 -1 -2 -3 -3 -3 -3 -3 -3 -5 -7 -8 -6 -3 -3 -4 -5 -5 -5 -5 -4 -4 -4 -4 -4 -3 -3 -4 -4 -7 -9 -10
-3 -3 -3 -4 -4 -4 -3 -3 -3 -3 -3 -2 -2 -2 -2 -3 -3 -3 -3 -3 -3 -2 -2 -2 -2 -2 -2 -2 -1 -0 1 -3 -6 -8 -8 -6 -4 -2 -2 -3 -3 -3 -3 -3 -2 -2 -4 -3 -2 -1 -3 -1 2 4 3 -1 -3 -4 -3 -4 -4 -5 -6 -6 -8 -8 -7 -5 -4 -4 -5 -5 -5 -4 -3 -3 -4 -4 -3 -3 -3 -3 -4 -5 -7 -9
-2 -2 -2 -3 -2 -2 -2 -3 -3 -3 -3 -3 -3 -3 -3 -3 -3 -3 -3 -3 -3 -3 -3 -3 -2 -2 -2 -2 -1 -0 0 -3 -6 -7 -7 -5 -4 -3 -3 -2 -2 -2 -4 -3 -2 -1 -2 -2 -1 -1 -2 -3 -1 2 2 -0 -3 -4 -3 -3 -4 -7 -8 -7 -7 -8 -8 -6 -5 -4 -4 -5 -5 -4 -3 -3 -4 -4 -4 -4 -4 -4 -4 -4 -4 -5
-1 -1 -1 -1 -1 -1 -1 -2 -2 -2 -2 -2 -2 -2 -3 -3 -3 -3 -3 -3 -2 -3 -3 -3 -3 -2 -2 -1 -1 -0 -0 -2 -4 -6 -6 -5 -4 -4 -3 -1 -1 -2 -4 -3 -2 -2 -4 -4 -3 -2 -2 -4 -3 -1 0 0 -1 -3 -3 -2 -3 -5 -6 -5 -6 -7 -8 -6 -5 -4 -4 -6 -6 -5 -4 -4 -4 -5 -4 -3 -2 -3 -4 -3 -1 -1
1 1 0 -0 -0 0 0 0 -0 -0 -0 -0 -1 -1 -2 -2 -1 -1 -1 -2 -2 -2 -2 -2 -2 -2 -1 -1 -0 -0 -0 -2 -3 -4 -5 -5 -4 -4 -2 -0 0 -1 -3 -4 -3 -3 -4 -6 -5 -5 -4 -5 -4 -2 -1 -1 -1 -2 -1 -1 -2 -4 -4 -3 -4 -6 -7 -6 -5 -4 -4 -5 -6 -6 -5 -4 -4 -5 -4 -1 -0 -0 -2 -2 -0 2
1 1 1 1 1 1 2 2 2 1 1 1 1 0 -0 -0 -0 -0 -0 -0 -1 -1 -1 -1 -1 -0 0 0 0 -0 -1 -1 -2 -2 -3 -3 -3 -3 -2 -0 0 -0 -3 -5 -5 -4 -4 -6 -6 -6 -6 -6 -5 -3 -2 -2 -2 -2 -2 -1 0 1 0 -2 -4 -4 -4 -5 -6 -6 -3 -3 -4 -6 -6 -4 -3 -3 -4 -2 -0 -0 -2 -4 -2 1
0 1 1 1 1 1 2 2 2 2 1 1 1 1 0 0 0 0 0 -0 -0 -1 -1 -1 -0 1 2 1 1 -0 -1 -1 -1 -1 -1 -1 -1 -2 -2 -1 -0 -1 -3 -5 -6 -5 -5 -6 -7 -8 -8 -8 -7 -5 -1 -1 -2 -4 -6 -5 -1 3 5 0 -1 -2 -1 -3 -5 -6 -4 -3 -2 -4 -5 -4 -3 -2 -3 -3 -3 -2 -1 -4 -6 -5
-1 0 1 0 0 0 1 2 2 1 1 1 1 1 0 -0 -0 0 0 0 -0 -0 -1 -0 0 2 3 3 1 0 -1 -0 -0 -0 -0 -0 -1 -2 -2 -2 -2 -2 -3 -4 -5 -5 -5 -7 -8 -8 -8 -9 -9 -7 -3 -0 -0 -3 -8 -8 -6 -2 2 2 1 -1 -3 -2 -2 -4 -7 -6 -4 -2 -3 -4 -3 -2 -1 -4 -5 -4 -2 -3 -5 -7
-0 -0 -0 -1 -1 -1 0 1 1 1 1 1 1 1 -0 -0 -0 1 1 1 1 0 -0 0 1 3 5 5 3 1 -1 -0 -0 -0 -1 -1 -2 -2 -3 -4 -4 -4 -4 -4 -4 -4 -5 -8 -9 -8 -6 -8 -10 -10 -5 0 1 -2 -7 -8 -9 -7 -3 4 4 0 -6 -3 -1 -1 -8 -10 -8 -5 -3 -3 -2 -1 -0 -2 -4 -4 -3 -3 -3 -4
-0 -0 -1 -1 -1 -1 -0 -0 -0 -0 0 1 0 0 -0 -1 -0 1 1 1 1 -0 -1 -0 1 4 6 5 3 -0 -2 -2 -2 -2 -2 -3 -3 -4 -4 -4 -5 -5 -6 -6 -5 -4 -4 -7 -9 -9 -6 -8 -10 -10 -7 -2 -0 -1 -3 -6 -9 -12 -11 -0 4 2 -4 -2 -1 -1 -6 -9 -10 -7 -4 -2 -1 -0 -0 -0 -0 -1 -1 -2 -2 -2
-0 -0 -1 -1 -1 -1 -1 -1 -1 -0 -0 -0 -0 -0 -1 -1 -1 -0 1 1 0 -0 -1 -1 0 2 4 4 3 0 -2 -3 -4 -4 -4 -4 -4 -5 -5 -5 -5 -6 -6 -7 -6 -5 -5 -6 -6 -7 -7 -8 -9 -8 -6 -5 -4 -3 -2 -3 -6 -10 -11 -5 -2 -1 -3 -1 0 -0 -4 -8 -9 -7 -4 -1 -1 -1 -1 0 1 2 1 -0 -1 -2
-0 -0 -0 -0 -1 -1 -1 -1 -1 -1 -1 -0 -0 -0 -1 -2 -2 -1 0 0 -0 -1 -1 -1 -1 0 2 3 2 0 -2 -3 -4 -5 -6 -5 -5 -5 -5 -5 -5 -6 -7 -7 -7 -6 -6 -5 -4 -4 -5 -7 -7 -6 -4 -5 -6 -6 -2 -1 -4 -7 -8 -3 -3 -4 -7 -4 -1 1 -2 -7 -9 -8 -4 -1 -0 -0 -0 0 1 1 2 2 1 -1
-0 -0 -0 -0 -0 -0 -0 -0 -0 -0 -0 0 0 -0 -2 -2 -2 -1 -0 -0 -0 -1 -1 -1 -1 -0 1 2 1 -0 -1 -1 -2 -4 -6 -6 -6 -5 -4 -5 -5 -5 -6 -6 -6 -6 -6 -5 -5 -4 -5 -6 -5 -4 -1 -4 -6 -7 -3 -1 -4 -6 -5 -0 0 -2 -7 -6 -3 -0 -1 -5 -8 -8 -5 -4 -2 -1 1 2 1 1 2 2 0 -2
0 -0 -0 -0 -0 -0 -0 -0 -0 -0 1 1 0 -0 -1 -1 -1 -0 -0 -0 -1 -1 -1 -1 -1 -0 1 2 1 -0 -1 1 1 -1 -4 -5 -5 -5 -4 -5 -5 -5 -4 -4 -4 -4 -4 -5 -5 -6 -6 -7 -6 -4 -0 -2 -5 -7 -5 -3 -4 -5 -6 -1 1 0 -5 -6 -4 -2 -2 -5 -7 -7 -6 -5 -4 -3 -1 1 2 2 1 -1 -3 -4
-0 -0 -0 -0 -0 -0 -0 -0 -0 0 1 1 0 -0 -1 -1 -0 -0 -0 -1 -1 -1 -1 -1 -1 -0 0 1 1 -0 -0 1 3 2 -0 -3 -4 -4 -4 -4 -4 -4 -4 -3 -2 -2 -2 -2 -3 -4 -6 -7 -7 -6 -2 -1 -3 -6 -5 -2 -3 -5 -7 -3 -0 1 -3 -4 -4 -2 -2 -5 -6 -7 -8 -8 -7 -5 -3 -1 0 1 1 -2 -5 -6
-0 -0 0 0 0 0 0 -0 -0 0 1 1 1 -0 -1 -0 -0 -0 -0 -1 -1 -1 -1 -0 -0 -0 0 1 0 0 -0 1 3 3 2 -1 -2 -3 -3 -2 -2 -3 -3 -2 -1 -1 -2 -1 0 1 -0 -3 -5 -6 -3 -2 -3 -5 -5 -1 -1 -3 -7 -5 -2 0 -1 -3 -3 -1 -1 -3 -4 -6 -8 -10 -10 -9 -6 -3 -0 2 4 1 -3 -5
-0 0 0 0 0 0 0 0 0 0 1 1 1 0 -0 -0 -1 -1 -0 -0 -1 -1 -1 -1 -0 -0 0 1 1 0 -0 1 2 3 2 -0 -2 -2 -1 -0 -1 -2 -2 -0 0 -0 -2 -2 1 4 7 4 -1 -4 -4 -2 -3 -5 -6 -1 1 -0 -5 -5 -3 -0 -1 -3 -2 -1 0 -2 -3 -4 -6 -10 -12 -11 -8 -4 -1 3 6 4 1 -2
-0 0 0 0 0 0 0 0 0 0 0 0 1 1 1 0 -0 -1 -1 -1 -1 -1 -1 -1 -1 -0 0 1 1 0 -0 0 1 2 2 -0 -2 -2 -1 0 -0 -1 -2 -1 -1 -2 -4 -6 -3 1 7 7 2 -4 -5 -3 -3 -6 -9 -4 -1 0 -4 -5 -3 -2 -3 -4 -3 -1 -0 -2 -4 -5 -5 -8 -12 -14 -12 -7 -2 2 7 6 3 1
Height
3001 3002 3003 3004 3005 3006 3007 3009 3010 3011 3012 3013 3014 3015 3016 3017 3018 3019 3020 3021 3022 3023 3024 3025 3026 3027 3029 3030 3031 3032 3032 3033 3034 3034 3035 3035 3036 3036 3037 3037 3038 3039 3040 3040 3042 3043 3044 3045 3045 3046 3047 3047 3048 3049 3049 3050 3050 3050 3051 3051 3052 3052 3052 3053 3053 3054 3054 3055 3055 3055 3055 3056 3056 3056 3056 3057 3057 3057 3057 3057 3057 3057 3057 3057 3057 3057
3002 3003 3003 3004 3005 3006 3007 3009 3010 3010 3011 3012 3013 3014 3015 3016 3017 3018 3019 3020 3020 3021 3022 3023 3025 3025 3026 3027 3028 3029 3030 3031 3031 3032 3032 3033 3033 3034 3035 3035 3036 3037 3039 3040 3041 3042 3043 3044 3044 3045 3045 3046 3046 3047 3047 3048 3048 3048 3049 3049 3050 3050 3050 3051 3051 3051 3052 3052 3052 3053 3053 3053 3053 3054 3054 3054 3054 3054 3054 3054 3054 3054 3054 3054 3054 3053
3003 3003 3004 3004 3005 3006 3007 3008 3009 3010 3010 3011 3012 3013 3014 3015 3016 3017 3017 3018 3019 3020 3021 3022 3023 3024 3025 3025 3026 3027 3028 3028 3029 3030 3030 3031 3032 3033 3034 3035 3036 3037 3038 3040 3040 3041 3042 3042 3043 3043 3044 3044 3045 3045 3045 3045 3046 3046 3047 3047 3047 3048 3048 3048 3049 3049 3049 3050 3050 3050 3050 3050 3050 3051 3051 3051 3051 3051 3051 3051 3051 3051 3051 3050 3050 3050
3002 3003 3003 3004 3004 3005 3006 3007 3008 3009 3010 3010 3011 3012 3013 3014 3015 3016 3016 3017 3018 3019 3020 3021 3021 3022 3023 3024 3025 3025 3026 3027 3028 3029 3030 3031 3032 3033 3034 3035 3036 3037 3038 3039 3039 3040 3040 3041 3041 3042 3042 3042 3043 3043 3043 3044 3044 3044 3044 3045 3045 3045 3045 3046 3046 3046 3047 3047 3047 3047 3047 3047 3048 3048 3048 3048 3048 3048 3048 3048 3048 3048 3048 3047 3047 3047
3002 3002 3003 3003 3004 3005 3005 3006 3007 3008 3009 3010 3010 3011 3012 3013 3014 3015 3016 3017 3018 3018 3019 3020 3021 3022 3023 3024 3025 3025 3026 3027 3028 3029 3030 3031 3032 3033 3034 3035 3036 3036 3037 3038 3038 3039 3039 3040 3040 3040 3040 3040 3041 3041 3041 3041 3041 3042 3042 3042 3042 3043 3043 3043 3044 3044 3044 3044 3044 3044 3045 3045 3045 3045 3045 3045 3045 3045 3045 3045 3045 3045 3044 3044 3044 3043
3002 3002 3003 3003 3004 3004 3005 3005 3006 3007 3008 3009 3010 3011 3012 3013 3014 3015 3016 3017 3018 3019 3020 3020 3021 3022 3023 3024 3025 3026 3027 3028 3029 3029 3030 3031 3032 3033 3034 3034 3035 3035 3036 3036 3037 3037 3038 3038 3038 3038 3038 3039 3039 3039 3039 3039 3039 3040 3040 3040 3040 3040 3040 3040 3041 3041 3041 3041 3041 3041 3041 3041 3042 3042 3042 3042 3042 3042 3042 3042 3041 3041 3041 3041 3040 3040
3002 3002 3003 3003 3004 3004 3005 3005 3006 3007 3008 3009 3010 3011 3012 3013 3015 3015 3017 3018 3019 3020 3020 3021 3022 3023 3024 3025 3025 3026 3027 3028 3028 3029 3030 3030 3031 3032 3033 3033 3034 3034 3035 3035 3035 3035 3036 3036 3036 3036 3036 3036 3036 3036 3037 3037 3037 3037 3037 3037 3037 3037 3038 3038 3038 3038 3038 3038 3038 3038 3038 3039 3039 3039 3039 3039 3039 3039 3039 3039 3038 3038 3038 3037 3037 3037
3001 3001 3002 3002 3003 3004 3005 3005 3006 3007 3008 3009 3010 3011 3013 3014 3015 3016 3018 3019 3020 3020 3021 3022 3023 3024 3024 3025 3025 3026 3026 3027 3028 3028 3029 3029 3030 3030 3031 3031 3032 3032 3032 3033 3033 3033 3033 3034 3034 3034 3034 3034 3034 3034 3034 3034 3034 3035 3035 3035 3035 3035 3035 3035 3035 3035 3035 3035 3035 3035 3035 3035 3035 3035 3035 3035 3035 3035 3035 3035 3035 3035 3035 3034 3034 3033
3000 3000 3001 3002 3003 3004 3005 3006 3007 3008 3009 3010 3011 3012 3013 3015 3016 3017 3018 3019 3020 3020 3021 3022 3023 3023 3024 3024 3025 3025 3025 3026 3026 3027 3027 3028 3028 3029 3029 3029 3030 3030 3030 3030 3030 3031 3031 3031 3031 3031 3031 3031 3032 3032 3032 3032 3032 3032 3032 3032 3032 3032 3032 3032 3032 3032 3032 3032 3032 3032 3032 3032 3033 3033 3032 3032 3032 3032 3032 3032 3032 3031 3031 3030 3030 3030
3000 3001 3002 3003 3003 3005 3005 3006 3008 3009 3010 3010 3011 3013 3014 3015 3015 3016 3018 3018 3019 3020 3021 3021 3022 3022 3023 3023 3023 3024 3024 3024 3025 3025 3025 3026 3026 3026 3027 3027 3027 3028 3028 3028 3028 3028 3029 3029 3029 3029 3029 3029 3029 3029 3029 3029 3030 3030 3030 3029 3029 3030 3030 3030 3030 3030 3030 3030 3030 3030 3030 3030 3030 3029 3029 3029 3029 3029 3029 3028 3028 3028 3027 3027 3027 3026
3002 3002 3003 3004 3005 3005 3006 3007 3008 3009 3010 3011 3011 3012 3013 3014 3015 3016 3017 3018 3018 3019 3020 3020 3020 3021 3021 3021 3022 3022 3022 3023 3023 3023 3024 3024 3024 3025 3025 3025 3025 3025 3026 3026 3026 3026 3026 3026 3027 3027 3027 3027 3027 3027 3027 3027 3027 3027 3027 3027 3027 3027 3027 3027 3027 3027 3027 3026 3026 3026 3026 3026 3026 3026 3026 3026 3025 3025 3025 3025 3025 3024 3024 3023 3023 3022
3002 3003 3003 3004 3005 3006 3007 3007 3008 3009 3010 3010 3011 3012 3013 3013 3014 3015 3016 3016 3017 3017 3018 3018 3019 3019 3019 3020 3020 3020 3020 3021 3021 3021 3022 3022 3022 3022 3023 3023 3023 3024 3024 3024 3024 3024 3024 3025 3025 3025 3025 3025 3025 3025 3025 3025 3025 3024 3024 3024 3024 3024 3024 3024 3024 3024 3024 3023 3023 3023 3023 3023 3023 3023 3022 3022 3022 3022 3021 3021 3021 3020 3020 3020 3019 3019
3002 3003 3003 3004 3005 3005 3006 3007 3008 3009 3009 3010 3010 3011 3012 3012 3013 3014 3014 3015 3015 3016 3016 3016 3016 3017 3017 3018 3018 3018 3019 3019 3019 3019 3020 3020 3020 3020 3020 3020 3021 3021 3021 3021 3021 3022 3022 3022 3022 3022 3022 3022 3022 3022 3022 3021 3021 3021 3021 3021 3021 3021 3020 3020 3020 3020 3020 3020 3020 3020 3020 3020 3019 3019 3019 3019 3018 3018 3018 3017 3017 3016 3016 3015 3015 3014
3001 3002 3003 3004 3004 3005 3006 3006 3007 3008 3008 3009 3010 3010 3010 3011 3011 3011 3012 3012 3013 3014 3014 3014 3014 3015 3015 3015 3016 3016 3017 3017 3017 3017 3018 3018 3018 3018 3018 3018 3018 3018 3019 3019 3019 3019 3019 3019 3019 3019 3019 3019 3019 3019 3018 3018 3018 3018 3018 3018 3017 3017 3017 3017 3017 3017 3017 3016 3016 3016 3016 3016 3015 3015 3015 3015 3014 3014 3014 3013 3013 3012 3012 3011 3010 3010
3001 3001 3002 3003 3004 3004 3005 3006 3006 3007 3007 3008 3008 3009 3009 3009 3010 3010 3010 3011 3011 3012 3012 3012 3012 3012 3013 3014 3014 3015 3015 3015 3015 3016 3016 3016 3016 3016 3016 3016 3016 3016 3016 3017 3016 3016 3016 3016 3016 3016 3016 3016 3016 3016 3015 3015 3015 3015 3015 3014 3014 3014 3014 3014 3013 3013 3013 3013 3013 3012 3012 3012 3012 3011 3011 3011 3010 3010 3010 3009 3008 3008 3007 3007 3006 3005
3000 3001 3001 3002 3003 3004 3004 3005 3005 3006 3006 3007 3007 3007 3008 3008 3008 3008 3009 3009 3010 3010 3010 3010 3010 3011 3011 3011 3012 3013 3013 3013 3014 3014 3014 3014 3014 3014 3015 3015 3015 3015 3015 3015 3015 3014 3014 3015 3014 3014 3014 3014 3014 3014 3013 3013 3012 3012 3012 3011 3011 3010 3010 3010 3010 3010 3009 3009 3009 3009 3008 3008 3008 3007 3007 3007 3006 3006 3005 3005 3004 3004 3003 3002 3002 3001
3000 3000 3001 3001 3002 3003 3003 3004 3004 3005 3005 3005 3006 3006 3006 3006 3006 3007 3007 3007 3008 3008 3009 3009 3009 3009 3009 3010 3010 3011 3011 3011 3012 3012 3012 3012 3012 3012 3012 3013 3013 3013 3013 3013 3013 3012 3012 3012 3012 3012 3012 3012 3012 3012 3011 3011 3010 3010 3009 3009 3008 3008 3007 3007 3006 3006 3006 3005 3005 3005 3005 3004 3004 3003 3003 3002 3002 3001 3001 3000 3000 2999 2999 2998 2997 2997
2999 3000 3000 3000 3001 3001 3002 3002 3003 3003 3004 3004 3004 3004 3004 3005 3005 3005 3005 3006 3006 3007 3007 3007 3007 3008 3008 3008 3008 3008 3009 3010 3010 3010 3010 3010 3010 3010 3010 3010 3010 3010 3011 3011 3010 3010 3010 3010 3010 3010 3010 3010 3010 3010 3010 3009 3009 3008 3008 3007 3006 3005 3005 3004 3003 3003 3002 3002 3001 3001 3000 3000 3000 2999 2999 2998 2998 2997 2997 2996 2995 2995 2994 2994 2993 2992
2998 2999 2999 3000 3000 3000 3001 3001 3001 3002 3002 3002 3002 3002 3003 3003 3003 3003 3004 3004 3004 3005 3005 3005 3005 3006 3006 3006 3006 3006 3007 3007 3007 3007 3008 3008 3008 3008 3008 3008 3008 3008 3008 3008 3008 3008 3007 3007 3007 3007 3007 3007 3007 3007 3007 3007 3006 3006 3006 3005 3005 3004 3003 3001 3000 3000 2999 2998 2998 2997 2997 2996 2996 2995 2995 2994 2993 2993 2992 2992 2991 2990 2990 2989 2988 2988
2997 2998 2998 2998 2999 2999 3000 3000 3000 3000 3000 3000 3000 3001 3001 3001 3001 3002 3002 3002 3002 3003 3003 3004 3004 3004 3004 3004 3004 3004 3004 3005 3005 3005 3005 3006 3006 3005 3005 3005 3005 3005 3005 3005 3005 3005 3005 3005 3004 3004 3004 3004 3004 3003 3003 3003 3003 3003 3003 3002 3002 3001 3000 2999 2998 2997 2996 2995 2994 2994 2993 2992 2991 2991 2990 2990 2989 2988 2988 2987 2986 2986 2985 2984 2984 2983
2996 2996 2996 2996 2997 2997 2998 2998 2998 2999 2999 2999 2999 2999 2999 2999 3000 3000 3000 3000 3000 3001 3001 3001 3001 3001 3002 3002 3002 3001 3001 3002 3001 3001 3002 3003 3003 3003 3002 3003 3002 3002 3002 3002 3002 3002 3002 3001 3001 3001 3001 3000 3000 3000 3000 3000 2999 2999 2999 2999 2998 2998 2997 2996 2995 2993 2992 2991 2990 2990 2989 2988 2987 2987 2986 2985 2985 2984 2983 2982 2981 2981 2980 2979 2979 2978
2995 2995 2995 2995 2995 2995 2995 2996 2996 2997 2997 2997 2997 2997 2997 2998 2998 2998 2998 2998 2999 2999 2999 2999 2999 2999 3000 3000 2999 2999 2999 2999 2999 2998 2999 3000 3000 3000 2999 3000 2999 2999 2998 2998 2998 2999 2998 2998 2997 2997 2997 2997 2996 2996 2996 2996 2995 2995 2995 2995 2994 2994 2993 2992 2991 2990 2988 2987 2986 2986 2985 2984 2983 2982 2982 2981 2980 2979 2979 2978 2977 2976 2975 2974 2973 2973
2993 2993 2993 2994 2994 2994 2994 2994 2995 2995 2995 2995 2995 2995 2995 2996 2996 2996 2996 2996 2996 2996 2996 2996 2996 2997 2997 2997 2996 2996 2996 2996 2996 2995 2995 2996 2996 2996 2996 2997 2996 2995 2994 2995 2995 2995 2995 2994 2994 2994 2994 2993 2993 2992 2992 2992 2992 2991 2991 2990 2990 2990 2989 2988 2987 2986 2985 2984 2983 2982 2981 2980 2979 2978 2977 2977 2976 2975 2974 2973 2972 2971 2970 2969 2968 2967
2992 2992 2992 2992 2992 2992 2992 2992 2993 2993 2993 2993 2993 2993 2993 2994 2994 2994 2994 2994 2994 2994 2994 2994 2994 2994 2994 2994 2994 2993 2993 2993 2993 2992 2992 2992 2992 2992 2993 2993 2993 2991 2990 2991 2992 2992 2991 2991 2990 2990 2990 2990 2989 2989 2988 2988 2988 2988 2987 2986 2986 2985 2985 2984 2984 2983 2982 2980 2980 2978 2977 2976 2975 2974 2973 2972 2971 2970 2969 2968 2967 2966 2965 2964 2963 2962
2990 2990 2990 2990 2990 2990 2990 2990 2990 2990 2990 2990 2990 2991 2991 2991 2991 2991 2991 2991 2991 2991 2991 2991 2991 2991 2991 2991 2991 2990 2990 2990 2990 2990 2989 2988 2988 2989 2989 2990 2989 2988 2987 2987 2988 2989 2988 2987 2986 2986 2986 2986 2985 2985 2985 2985 2984 2984 2983 2982 2982 2981 2980 2980 2980 2979 2978 2977 2976 2975 2974 2973 2971 2970 2969 2968 2967 2965 2964 2963 2962 2961 2960 2959 2958 2957
2989 2989 2989 2989 2989 2989 2989 2989 2989 2989 2989 2989 2989 2988 2989 2989 2989 2989 2988 2988 2988 2988 2988 2988 2988 2988 2988 2988 2988 2987 2987 2987 2987 2986 2985 2985 2985 2985 2985 2985 2985 2985 2984 2984 2985 2985 2985 2984 2983 2983 2983 2983 2982 2981 2981 2981 2980 2980 2979 2978 2978 2977 2976 2976 2975 2975 2974 2974 2973 2972 2970 2969 2968 2966 2965 2964 2962 2961 2960 2958 2957 2955 2955 2954 2953 2952
2987 2987 2987 2987 2987 2987 2987 2987 2987 2987 2987 2987 2987 2986 2986 2987 2986 2986 2986 2985 2985 2986 2986 2985 2985 2985 2985 2985 2985 2985 2984 2984 2984 2983 2982 2982 2982 2982 2982 2982 2982 2982 2981 2980 2981 2982 2982 2981 2980 2980 2980 2980 2979 2978 2978 2977 2976 2976 2975 2975 2974 2973 2972 2972 2971 2970 2970 2969 2968 2967 2966 2965 2964 2962 2960 2959 2958 2956 2955 2953 2952 2951 2950 2948 2947 2946
2985 2986 2986 2986 2986 2986 2985 2985 2985 2985 2985 2985 2985 2985 2985 2985 2985 2984 2984 2984 2984 2984 2984 2983 2983 2983 2983 2983 2983 2982 2982 2981 2980 2980 2980 2980 2980 2979 2979 2979 2979 2979 2978 2978 2978 2979 2979 2978 2977 2976 2977 2976 2976 2975 2975 2974 2973 2972 2971 2971 2970 2969 2968 2967 2967 2966 2965 2964 2963 2962 2961 2960 2959 2958 2956 2955 2953 2952 2950 2949 2947 2946 2945 2943 2942 2941
2984 2984 2984 2984 2984 2984 2984 2983 2983 2983 2983 2983 2983 2983 2983 2983 2982 2982 2981 2981 2982 2982 2981 2980 2980 2980 2980 2980 2980 2980 2980 2979 2978 2978 2978 2978 2977 2976 2976 2976 2977 2976 2975 2975 2975 2976 2976 2975 2975 2974 2974 2974 2973 2972 2971 2970 2969 2969 2968 2967 2966 2965 2964 2963 2962 2961 2960 2960 2959 2958 2957 2955 2954 2953 2952 2950 2949 2948 2946 2944 2943 2941 2940 2939 2937 2936
2981 2981 2981 2981 2981 2981 2981 2981 2981 2981 2981 2980 2980 2980 2980 2980 2980 2979 2979 2979 2980 2979 2978 2978 2978 2978 2978 2978 2978 2978 2977 2976 2975 2975 2976 2976 2974 2973 2973 2974 2974 2973 2973 2972 2973 2973 2973 2973 2973 2972 2971 2970 2970 2969 2968 2967 2966 2965 2964 2964 2963 2961 2960 2959 2958 2957 2956 2955 2955 2954 2952 2951 2950 2949 2948 2946 2945 2943 2942 2940 2938 2936 2935 2934 2933 2931
2979 2979 2979 2979 2979 2979 2979 2978 2978 2978 2978 2978 2978 2978 2977 2977 2977 2977 2977 2977 2976 2976 2975 2975 2975 2975 2975 2975 2975 2975 2974 2973 2973 2973 2974 2973 2971 2970 2971 2972 2971 2970 2970 2970 2970 2969 2969 2970 2970 2970 2969 2968 2966 2965 2965 2964 2963 2962 2961 2960 2959 2958 2957 2956 2955 2954 2953 2952 2950 2950 2948 2947 2946 2945 2943 2942 2940 2939 2938 2936 2934 2932 2930 2930 2928 2927
2977 2977 2976 2976 2976 2976 2976 2976 2976 2976 2975 2975 2975 2975 2975 2975 2975 2974 2974 2974 2974 2973 2973 2973 2972 2972 2972 2972 2972 2972 2971 2970 2970 2970 2970 2970 2968 2967 2968 2969 2968 2967 2966 2967 2967 2966 2965 2965 2966 2967 2966 2965 2963 2962 2961 2960 2960 2959 2958 2957 2955 2954 2953 2952 2951 2950 2949 2947 2946 2945 2944 2943 2941 2940 2938 2937 2936 2934 2933 2931 2929 2928 2926 2925 2924 2923
2974 2974 2974 2974 2974 2974 2973 2973 2973 2973 2973 2973 2972 2972 2972 2972 2972 2971 2971 2971 2971 2970 2970 2970 2970 2970 2970 2970 2969 2969 2968 2967 2967 2967 2968 2967 2965 2965 2965 2966 2965 2964 2963 2963 2964 2963 2962 2961 2961 2962 2962 2962 2960 2959 2957 2956 2955 2955 2954 2953 2952 2950 2949 2948 2947 2946 2945 2943 2942 2940 2939 2938 2936 2935 2934 2932 2931 2930 2928 2927 2925 2923 2922 2921 2920 2919
2971 2971 2971 2971 2971 2971 2971 2970 2970 2970 2970 2970 2970 2970 2969 2969 2969 2969 2968 2968 2968 2968 2968 2967 2967 2967 2967 2967 2966 2966 2965 2965 2964 2965 2965 2964 2962 2962 2962 2962 2962 2961 2960 2960 2960 2960 2959 2958 2957 2957 2957 2957 2957 2955 2954 2952 2951 2950 2950 2949 2947 2946 2944 2943 2942 2941 2940 2938 2937 2936 2935 2933 2932 2931 2929 2928 2927 2925 2924 2923 2922 2920 2919 2917 2916 2915
2969 2969 2968 2968 2968 2968 2968 2968 2968 2968 2967 2967 2967 2967 2966 2966 2966 2966 2965 2965 2965 2965 2965 2965 2964 2964 2964 2964 2964 2963 2962 2961 2961 2961 2961 2961 2960 2959 2959 2959 2959 2958 2958 2957 2956 2956 2956 2955 2954 2954 2953 2953 2952 2951 2950 2949 2948 2947 2945 2944 2943 2941 2940 2938 2937 2937 2935 2934 2933 2932 2930 2929 2928 2927 2926 2925 2924 2922 2921 2920 2919 2917 2916 2915 2913 2912
2966 2965 2965 2965 2965 2965 2965 2965 2965 2965 2965 2964 2964 2964 2964 2964 2963 2963 2963 2963 2962 2962 2962 2962 2961 2961 2961 2961 2961 2960 2960 2959 2959 2959 2958 2957 2957 2956 2956 2956 2955 2955 2955 2953 2953 2952 2952 2951 2950 2950 2950 2949 2948 2947 2946 2946 2945 2944 2942 2940 2939 2938 2936 2935 2934 2933 2932 2931 2930 2928 2927 2926 2925 2924 2923 2922 2921 2920 2919 2917 2916 2915 2914 2913 2911 2910
2963 2963 2963 2963 2963 2963 2962 2962 2962 2962 2962 2961 2961 2961 2961 2961 2960 2960 2960 2960 2960 2960 2959 2959 2959 2959 2958 2958 2958 2957 2957 2956 2956 2956 2955 2954 2954 2954 2953 2952 2952 2951 2951 2950 2949 2948 2948 2948 2947 2946 2946 2945 2945 2944 2943 2942 2942 2941 2939 2937 2936 2935 2934 2932 2931 2930 2929 2928 2927 2926 2925 2924 2923 2922 2920 2919 2919 2918 2917 2915 2914 2913 2912 2911 2910 2908
2960 2960 2960 2960 2960 2960 2960 2960 2959 2959 2959 2959 2959 2958 2958 2958 2958 2958 2958 2957 2957 2957 2957 2956 2956 2956 2956 2955 2955 2955 2954 2954 2953 2953 2952 2951 2951 2950 2950 2949 2948 2948 2947 2947 2946 2945 2945 2944 2944 2943 2942 2942 2941 2940 2940 2939 2938 2937 2936 2935 2934 2933 2931 2930 2929 2928 2927 2926 2925 2924 2923 2922 2921 2920 2918 2917 2916 2915 2915 2914 2912 2911 2910 2910 2908 2907
2957 2957 2957 2957 2957 2957 2957 2957 2957 2956 2956 2956 2956 2955 2955 2955 2955 2955 2955 2955 2955 2955 2954 2954 2954 2953 2953 2953 2952 2952 2951 2951 2950 2950 2949 2949 2948 2947 2947 2946 2945 2945 2944 2944 2943 2942 2941 2941 2940 2940 2939 2939 2938 2938 2937 2936 2935 2934 2933 2933 2932 2931 2930 2929 2927 2926 2925 2924 2923 2922 2921 2920 2919 2918 2916 2915 2914 2913 2912 2911 2910 2909 2908 2907 2906 2905
2954 2954 2954 2954 2954 2954 2954 2954 2954 2954 2954 2953 2953 2953 2953 2952 2952 2952 2952 2952 2952 2952 2951 2951 2951 2951 2950 2950 2950 2949 2948 2948 2947 2947 2946 2945 2945 2944 2944 2943 2942 2941 2941 2941 2940 2939 2939 2938 2937 2937 2936 2936 2935 2935 2934 2933 2933 2931 2931 2930 2929 2929 2928 2927 2926 2924 2922 2921 2920 2920 2919 2917 2916 2915 2914 2913 2912 2911 2910 2908 2907 2906 2905 2904 2903 2902
2951 2951 2950 2950 2950 2951 2951 2950 2950 2950 2950 2950 2950 2950 2950 2950 2950 2950 2950 2950 2949 2949 2948 2948 2948 2948 2947 2947 2946 2946 2945 2945 2944 2943 2943 2942 2941 2941 2940 2940 2939 2939 2938 2938 2937 2937 2936 2936 2935 2934 2933 2933 2933 2932 2931 2931 2930 2929 2928 2927 2926 2925 2925 2925 2924 2922 2921 2919 2918 2917 2916 2915 2914 2912 2911 2910 2909 2908 2906 2905 2904 2902 2901 2900 2900 2899
2948 2947 2947 2947 2948 2948 2948 2948 2947 2947 2947 2947 2947 2947 2947 2947 2947 2947 2947 2946 2946 2946 2945 2945 2945 2945 2944 2944 2943 2943 2942 2941 2940 2940 2939 2939 2938 2938 2937 2937 2937 2936 2936 2935 2935 2934 2934 2934 2933 2932 2931 2930 2930 2930 2929 2928 2927 2927 2926 2925 2923 2922 2922 2922 2921 2920 2919 2917 2915 2913 2912 2912 2910 2909 2907 2906 2905 2905 2903 2902 2901 2899 2898 2897 2896 2895
2945 2945 2945 2945 2945 2945 2945 2945 2945 2945 2945 2945 2944 2944 2944 2944 2944 2944 2943 2943 2943 2943 2942 2942 2942 2941 2941 2940 2940 2939 2939 2938 2937 2937 2936 2936 2936 2935 2935 2935 2934 2934 2934 2933 2933 2932 2931 2931 2931 2930 2928 2928 2927 2927 2926 2925 2925 2924 2923 2922 2920 2919 2918 2917 2917 2917 2916 2914 2912 2910 2909 2908 2907 2905 2904 2903 2902 2901 2900 2899 2898 2896 2895 2894 2893 2892
2942 2942 2942 2942 2942 2942 2942 2942 2942 2942 2942 2942 2942 2941 2941 2941 2941 2941 2940 2940 2940 2940 2939 2939 2939 2939 2938 2937 2937 2937 2936 2936 2935 2935 2934 2934 2934 2933 2933 2932 2932 2931 2931 2931 2931 2930 2929 2929 2928 2927 2926 2925 2925 2924 2923 2922 2922 2921 2920 2919 2917 2916 2915 2914 2913 2913 2912 2911 2909 2907 2906 2905 2903 2902 2901 2900 2899 2898 2897 2896 2895 2893 2892 2892 2891 2890
2940 2940 2940 2940 2940 2940 2940 2940 2940 2940 2940 2940 2939 2939 2939 2939 2939 2938 2938 2937 2937 2937 2936 2936 2936 2936 2935 2935 2935 2935 2934 2934 2933 2932 2932 2932 2931 2931 2930 2930 2930 2929 2929 2929 2928 2928 2927 2926 2926 2925 2924 2924 2922 2921 2920 2919 2918 2918 2916 2915 2914 2913 2912 2911 2910 2909 2908 2907 2905 2904 2903 2902 2900 2899 2897 2896 2896 2895 2895 2893 2892 2890 2890 2889 2889 2888
2937 2937 2937 2937 2938 2938 2937 2937 2938 2938 2937 2937 2937 2936 2936 2936 2936 2935 2935 2935 2935 2934 2934 2934 2934 2933 2933 2933 2933 2933 2933 2932 2931 2930 2930 2930 2929 2929 2928 2928 2927 2927 2927 2926 2926 2925 2925 2924 2923 2922 2921 2920 2920 2919 2918 2917 2915 2914 2913 2912 2911 2910 2910 2908 2907 2906 2905 2904 2902 2901 2900 2899 2898 2896 2895 2893 2893 2892 2891 2890 2889 2888 2887 2886 2885 2884
2935 2935 2935 2935 2935 2935 2935 2935 2935 2935 2935 2935 2935 2934 2934 2934 2934 2933 2933 2932 2932 2932 2931 2931 2931 2931 2930 2930 2930 2931 2931 2930 2930 2929 2929 2928 2927 2926 2926 2925 2925 2925 2925 2924 2924 2923 2922 2921 2920 2920 2919 2918 2916 2915 2915 2914 2913 2912 2910 2909 2908 2907 2907 2906 2905 2904 2903 2901 2900 2898 2897 2896 2895 2893 2892 2891 2890 2889 2888 2887 2886 2885 2884 2883 2882 2880
2933 2933 2933 2933 2933 2933 2933 2933 2933 2933 2933 2932 2932 2932 2932 2931 2931 2930 2930 2930 2930 2929 2929 2929 2929 2928 2928 2928 2928 2928 2928 2928 2928 2927 2927 2926 2925 2925 2924 2924 2923 2923 2922 2922 2921 2921 2920 2919 2918 2917 2916 2915 2914 2912 2911 2911 2910 2910 2908 2906 2905 2905 2904 2903 2902 2901 2900 2899 2897 2896 2894 2893 2892 2890 2889 2887 2886 2885 2885 2884 2883 2882 2881 2880 2879 2877
2930 2930 2930 2930 2930 2931 2930 2930 2931 2930 2930 2930 2930 2930 2929 2929 2929 2928 2927 2927 2927 2927 2926 2926 2926 2926 2926 2926 2926 2925 2925 2925 2925 2925 2925 2924 2924 2923 2922 2922 2921 2921 2920 2920 2919 2919 2918 2917 2916 2915 2914 2913 2912 2910 2908 2907 2907 2907 2906 2904 2903 2902 2901 2900 2899 2898 2897 2896 2895 2893 2892 2890 2889 2888 2886 2884 2883 2881 2880 2880 2879 2879 2878 2877 2876 2875
2928 2928 2928 2928 2928 2928 2928 2928 2928 2928 2928 2927 2927 2927 2926 2926 2926 2925 2925 2925 2925 2924 2924 2924 2924 2924 2924 2924 2923 2923 2923 2923 2923 2922 2922 2922 2921 2921 2920 2920 2920 2919 2919 2918 2917 2916 2915 2915 2913 2912 2912 2911 2910 2908 2906 2904 2903 2903 2903 2902 2901 2899 2898 2897 2896 2895 2894 2893 2891 2890 2888 2887 2886 2885 2884 2881 2879 2877 2876 2876 2875 2875 2875 2874 2873 2871
2926 2926 2926 2926 2926 2926 2926 2926 2926 2925 2925 2925 2925 2925 2924 2924 2923 2923 2923 2922 2922 2922 2922 2921 2921 2921 2921 2921 2921 2920 2920 2920 2920 2920 2920 2919 2919 2919 2918 2917 2917 2917 2916 2915 2914 2913 2912 2912 2910 2909 2908 2908 2908 2907 2904 2901 2899 2899 2900 2899 2898 2897 2895 2894 2892 2891 2890 2889 2888 2886 2885 2884 2882 2881 2880 2878 2876 2874 2872 2872 2871 2871 2872 2871 2870 2868